www.pogodaiklimat.ru

Погода и климат >> Архив погоды >> Россия >> Саратовская область >> Красный Кут


ПОГОДА в Красном Куте

  • Прогноз погоды в Красном Куте
  • Монитор погоды в Красном Куте

АРХИВ ПОГОДЫ в Красном Куте

Время (UTC), дата Ветер
(напр.,м/с)
 
Видим.   Явления Облачность Т
(С)
Тd
(С)
f
(%)
Тe
(С)
Тes
(С)
Комфортность P
(гПа)
Po
(гПа)
Тmin
(С)
Tmax
(С)
R
(мм)
R24
(мм)
S
(см)
00 17.01 З 4 4000 м дымка 3/0
[Ac trans]
-8.0 -8.4 97 -15 -15 1008.3 1001.9
03 17.01 З 3 4000 м дымка 3/0
[Ac trans]
-10.0 -10.2 98 -16 -16 1010.7 1004.3 -10.0 83
06 17.01 З 2 4000 м дымка 10/4 1500 м
[Sc Ac trans Ci fib]
-13.3 -13.6 98 -18 -18 1013.7 1007.2 -13.8
09 17.01 З 2 10 км 6/0
[Ac trans]
-7.9 -9.9 86 -12 -11 1015.5 1009.0
12 17.01 З 3 10 км 3/0
[Ac trans]
-7.8 -10.0 84 -14 -13 1016.5 1010.0
15 17.01 Ю 3 10 км ясно -12.2 -12.9 95 -18 -18 1018.7 1012.2 -6.0
18 17.01 Ю 1 10 км ясно -17.0 -18.2 90 -20 -20 1019.7 1013.0
21 17.01 штиль 0 10 км [диам. изморози 1 мм] ясно -19.3 -20.7 89 -19 -19 1020.3 1013.5
00 18.01 Ю 2 10 км ясно -17.3 -18.3 92 -23 -23 1020.2 1013.5
03 18.01 Ю 3 4000 м дымка [диам. изморози 3 мм] 10/10 450 м
[Sc]
-11.7 -12.1 97 -18 -18 1019.4 1012.8 -22.2 83
06 18.01 Ю 4 2000 м дымка 10/10 270 м
[Frnb Ns]
-9.3 -9.5 98 -16 -16 1018.9 1012.4
09 18.01 Ю 6
{10}
4000 м дымка 10/10 870 м
[Sc]
-6.9 -8.1 91 -15 -15 1017.5 1011.1
12 18.01 ЮЗ 4
{10}
10 км 10/10 1500 м
[Sc]
-5.3 -6.4 92 -12 -12 1017.1 1010.7
15 18.01 ЮЗ 4 4000 м дымка 10/10 1500 м
[Sc]
-4.3 -4.9 96 -11 -11 1017.0 1010.6 -4.3
18 18.01 Ю 4 4000 м дымка 10/10 600 м
[Sc]
-3.3 -4.0 95 -10 -10 1016.7 1010.4
21 18.01 Ю 3 2000 м дымка 10/10 540 м
[Sc]
-2.7 -3.0 98 -8 -8 1016.4 1010.1
00 19.01 Ю 3 2000 м дымка 10/10 600 м
[Sc]
-2.0 -2.4 97 -7 -7 1015.1 1008.8
03 19.01 Ю 3 2000 м дымка 10/10 480 м
[Sc]
-1.9 -3.1 91 -7 -7 1014.0 1007.7 -4.3 83
06 19.01 Ю 2 4000 м дымка 10/10 450 м
[Sc]
-0.5 -1.8 91 -4 -4 1013.7 1007.4
09 19.01 Ю 2 4000 м дымка 10/10 540 м
[Sc]
+0.6 +0.3 98 -3 -3 1013.5 1007.3
12 19.01 ЮЗ 3 4000 м дымка 10/10 600 м
[Sc]
+1.1 +0.8 98 -4 -4 1012.7 1006.5
15 19.01 ЮЗ 2 4000 м дымка 10/10 540 м
[Sc]
+0.8 -0.7 90 -3 -3 1012.5 1006.3 +1.2
18 19.01 ЮЗ 3 4000 м дымка {дождь} 10/10 400 м
[Sc]
+0.6 -0.5 92 -4 -4 1011.8 1005.6
21 19.01 З 5 4000 м дымка 10/10 360 м
[Sc]
+0.9 +0.3 96 -5 -5 1012.9 1006.7
00 20.01 СЗ 7-10
{12}
4000 м дымка 6/0
[Ac trans]
-4.9 -6.2 91 -13 -13 1015.8 1009.4
03 20.01 З 4
{10}
10 км 3/0
[Ac trans]
-10.2 -11.6 89 -17 -17 1018.0 1011.5 -10.2 0.0 80
06 20.01 З 3 10 км ясно -11.9 -13.3 89 -18 -17 1020.6 1014.0 -12.4
09 20.01 З 4 10 км ясно -8.4 -10.4 85 -15 -13 1022.1 1015.6
12 20.01 З 3 10 км ясно -8.2 -10.2 85 -14 -14 1023.2 1016.7
15 20.01 ЮЗ 2 10 км ясно -12.1 -13.0 93 -17 -17 1024.4 1017.8 -7.4
18 20.01 ЮЗ 1 10 км ясно -14.3 -14.8 96 -17 -17 1024.5 1017.9
21 20.01 Ю 1 10 км ясно -17.3 -18.2 93 -20 -20 1025.3 1018.5
00 21.01 Ю 1 10 км ясно -15.9 -16.9 92 -19 -19 1024.7 1018.0
03 21.01 Ю 1 10 км 10/0
[Ci fib]
-16.7 -17.7 92 -19 -19 1023.7 1017.0 -17.9 80
06 21.01 Ю 2 2000 м дымка 10/10 240 м
[Frnb Ns]
-13.4 -14.1 94 -18 -18 1022.6 1016.0
09 21.01 Ю 3 2000 м дымка 10/10 600 м
[Sc]
-10.0 -10.3 98 -16 -16 1020.3 1013.8
12 21.01 Ю 5 4000 м слаб. снег 10/10 300 м
[Frnb Ns]
-7.0 -8.3 90 -15 -15 1016.1 1009.6
15 21.01 Ю 4
{10}
2000 м снег 10/10 180 м
[Frnb Ns]
-5.9 -7.0 92 -13 -13 1012.6 1006.2 -5.9 2
18 21.01 Ю 3 2000 м снег 10/10 180 м
[Frnb Ns]
-2.9 -3.8 93 -8 -8 1009.9 1003.6
21 21.01 З 5 2000 м дымка {снег} 10/10 180 м
[Frnb Ns]
-4.9 -5.1 98 -12 -12 1011.1 1004.8
00 22.01 СЗ 3 4000 м дымка {снег} 10/0
[Ac trans]
-12.3 -12.8 96 -18 -18 1013.3 1006.7
03 22.01 З 1 4000 м дымка ясно -15.5 -16.0 96 -18 -18 1015.1 1008.4 -15.5 3 85
06 22.01 З 2 10 км 3/0
[Ac trans]
-15.8 -16.7 93 -21 -20 1017.0 1010.3 -19.1
09 22.01 З 5 10 км ясно -11.0 -12.6 88 -19 -18 1018.4 1011.9
12 22.01 З 3 10 км ясно -12.4 -14.5 84 -18 -18 1019.4 1012.8
15 22.01 З 2 10 км ясно -19.1 -20.0 93 -25 -25 1021.1 1014.3 -10.9
18 22.01 З 2 10 км ясно -20.2 -21.5 89 -26 -26 1022.5 1015.7
21 22.01 З 1 10 км ясно -21.3 -22.7 88 -24 -24 1023.8 1017.0
00 23.01 З 1 10 км ясно -27.2 -29.3 82 -31 -31 опасность
обморожения
1025.1 1018.1
03 23.01 СЗ 1 10 км ясно -26.8 -29.0 82 -31 -31 опасность
обморожения
1026.1 1019.1 -27.3 85
06 23.01 ЮЗ 1 10 км ясно -26.9 -29.0 82 -31 -30 опасность
обморожения
1028.0 1021.0 -30.4
09 23.01 СЗ 1 10 км ясно -21.0 -22.9 85 -24 -21 1029.0 1022.1
12 23.01 З 1 10 км ясно -19.4 -20.9 88 -22 -22 1029.2 1022.4
15 23.01 штиль 0 10 км 4/0
[Ac trans]
-28.6 -30.9 80 -29 -29 1030.8 1023.7 -17.9
18 23.01 штиль 0 10 км ясно -29.4 -31.9 79 -29 -29 1031.4 1024.2
21 23.01 В 1 10 км ясно -27.1 -29.3 81 -31 -31 опасность
обморожения
1031.7 1024.6

 

Местоположение метеостанции Красный Кут (Саратовская область, Россия): широта 50.95 долгота 46.97 высота над уровнем моря 50 м.

В архиве по умолчанию представлена погода в Красном Куте за последнюю неделю. Архивные данные за месяц целиком и за предыдущие месяцы, начиная с января 2011 года, Вы можете получить, выбрав интересующий диапазон дат из раскрывающегося списка и нажав кнопку "Ввод!".


*Определитесь, кто Вы:
робот инопланетянин человек

Внимание! Время в таблицах - всемирное. Для получения местного времени необходимо прибавить поправку, которая равна 4 ч.

Смотрите также архив погоды в соседних городах и на ближайших метеорологических станциях:

Погода в Маркс (Саратовская область, Россия) (85 км)
Погода в Саратове (Саратовская область, Россия) (95 км)
Погода в Саратове ЮВ (Саратовская область, Россия) (97 км)
Погода в Новоузенске (Саратовская область, Россия) (100 км)
Погода в Палласовке (Волгоградская область, Россия) (100 км)
Погода в Ершове (Саратовская область, Россия) (104 км)
Погода в Сплавнухе (Саратовская область, Россия) (112 км)
Погода в Октябрьском Городке (Саратовская область, Россия) (130 км)
Погода в Балаково (Саратовская область, Россия) (133 км)
Погода в Александровом Гае (Саратовская область, Россия) (143 км)

Пояснения к столбцам:

Ветер - указаны скорость ветра в м/с - средняя за 10 мин, порывы в срок и между сроками (в фигурных скобках) и направление, откуда дует ветер: С - северный, СВ - северо-восточный, В - восточный, ЮВ - юго-восточный, Ю - южный, ЮЗ - юго-западный, З - западный, СЗ - северо-западный.
Видимость - горизонтальная дальность видимости в метрах или километрах. При видимости от 1 до 10 км при отсутствии осадков обычно наблюдается дымка, при ухудшении видимости до 1 км и менее - туман. В сухую погоду видимость может ухудшаться дымом, пылью или мглою.
Явления - указаны атмосферные явления, наблюдавшиеся в срок или в последний час перед сроком; фигурными скобками обозначены явления, наблюдавшиеся между сроками (за 1-3 часа до срока); квадратными скобками обозначены град или гололедные отложения с указанием их диаметра в мм.
Облачность - указаны через наклонную черту общая и нижняя облачность в баллах и высота нижней границы облаков в метрах; квадратными скобками обозначены формы облаков: Ci - перистые, Cs - перисто-слоистые, Cc - перисто-кучевые, Ac - высококучевые, As - высокослоистые, Sc - слоисто-кучевые, Ns - слоисто-дождевые, Cu - кучевые, Cb - кучево-дождевые. Подробнее классификацию облаков см. в Атласе облаков (PDF).
T - Температура воздуха - температура, измеренная на высоте 2 м над землей.
Td - Температура точки росы - температура, при понижении до которой содержащийся в воздухе водяной пар достигнет насыщения.
f - Относительная влажность воздуха - влажноcть воздуха, измеренная на высоте 2 м над землей.
Te - Эффективная температура - температура, которую ощущает одетый по сезону человек в тени. Характеристика душности погоды. При расчете учитывается влияние влажности воздуха и скорости ветра на теплоощущения человека.
Tes - Эффективная температура на солнце - температура, которую ощущает человек, с поправкой на солнечный нагрев. Характеристика знойности погоды. Зависит от высоты солнца над горизонтом, облачности и скорости ветра. Ночью, в пасмурную погоду, а также при ветре 12 м/с и более поправка равна нулю.
P - Атмосферное давление - приведенное к уровню моря атмосферное давление.
Po - Атмосферное давление - измеренное на уровне метеостанции атмосферное давление.
Tmin - Минимальная температура - минимум температуры воздуха на высоте 2 м над землей.
Tmax - Максимальная температура - максимум температуры воздуха на высоте 2 м над землей.
R - Количество осадков - Количество выпавших осадков за период времени, мм. При наведении курсора мыши на число - период времени, за который выпало указанное количество осадков.
R24 - Количество осадков - Количество выпавших осадков за 24 часа, мм.
S - Снежный покров - Высота снежного покрова, см. При наведении курсора мыши на число - состояние снежного покрова и степень покрытия местности в баллах.